• In Portugal
  • List of Countries
  • For 7 days
  • Water Temperature
  • Satellite Maps
  • Weather Map
  • Weather Widgets
  • user-avatar
    Login

    Hourly Weather Monte Carlo

    Today, 23 February, Friday

    Time Temperature Precipitation Wind Pressure Humidity
    00:00 +1°C° 0 mm 6 mps 740 mmHg 68%
    01:00 +1°C° 0.1 mm 6 mps 740 mmHg 66%
    02:00 +1°C° 0.1 mm 6 mps 740 mmHg 65%
    03:00 +2°C° 0.1 mm 6 mps 739 mmHg 64%
    04:00 +2°C° 0.4 mm 6 mps 739 mmHg 64%
    05:00 +2°C° 0.4 mm 6 mps 739 mmHg 63%
    06:00 +2°C° 0.4 mm 5 mps 739 mmHg 63%
    07:00 +3°C° 0.3 mm 6 mps 739 mmHg 60%
    08:00 +4°C° 0.3 mm 6 mps 739 mmHg 58%
    09:00 +5°C° 0.3 mm 6 mps 739 mmHg 55%
    10:00 +7°C° 0.2 mm 6 mps 739 mmHg 54%
    11:00 +7°C° 0.2 mm 6 mps 740 mmHg 52%
    12:00 +8°C° 0.2 mm 6 mps 740 mmHg 50%
    13:00 +8°C° 0.2 mm 5 mps 740 mmHg 51%
    14:00 +8°C° 0.2 mm 5 mps 739 mmHg 52%
    15:00 +8°C° 0.2 mm 5 mps 739 mmHg 53%
    16:00 +7°C° 0.2 mm 5 mps 739 mmHg 57%
    17:00 +6°C° 0.2 mm 5 mps 740 mmHg 61%
    18:00 +4°C° 0.2 mm 4 mps 740 mmHg 65%
    19:00 +4°C° 0.1 mm 4 mps 740 mmHg 65%
    20:00 +5°C° 0.1 mm 4 mps 740 mmHg 65%
    21:00 +5°C° 0.1 mm 4 mps 740 mmHg 64%
    22:00 +5°C° 0.3 mm 4 mps 740 mmHg 65%
    23:00 +5°C° 0.3 mm 3 mps 740 mmHg 67%

    Tomorrow, 24 February, Saturday

    Time Temperature Precipitation Wind Pressure Humidity
    00:00 +5°C° 0.3 mm 3 mps 740 mmHg 68%
    01:00 +5°C° 0.6 mm 3 mps 740 mmHg 69%
    02:00 +5°C° 0.6 mm 3 mps 740 mmHg 71%
    03:00 +5°C° 0.6 mm 3 mps 740 mmHg 72%
    04:00 +5°C° 0.5 mm 3 mps 740 mmHg 73%
    05:00 +5°C° 0.5 mm 3 mps 740 mmHg 73%
    06:00 +5°C° 0.5 mm 3 mps 740 mmHg 73%
    07:00 +7°C° 0.6 mm 3 mps 741 mmHg 72%
    08:00 +8°C° 0.6 mm 3 mps 741 mmHg 70%
    09:00 +8°C° 0.6 mm 3 mps 741 mmHg 68%
    10:00 +9°C° 1 mm 3 mps 742 mmHg 69%
    11:00 +9°C° 1 mm 3 mps 742 mmHg 70%
    12:00 +9°C° 1 mm 3 mps 742 mmHg 70%
    13:00 +9°C° 0.7 mm 3 mps 742 mmHg 72%
    14:00 +9°C° 0.7 mm 3 mps 742 mmHg 74%
    15:00 +9°C° 0.7 mm 3 mps 742 mmHg 76%
    16:00 +8°C° 0.5 mm 3 mps 742 mmHg 79%
    17:00 +8°C° 0.5 mm 3 mps 742 mmHg 82%
    18:00 +7°C° 0.5 mm 3 mps 742 mmHg 84%
    19:00 +7°C° 0.5 mm 3 mps 743 mmHg 84%
    20:00 +7°C° 0.5 mm 3 mps 743 mmHg 84%
    21:00 +7°C° 0.5 mm 3 mps 743 mmHg 83%
    22:00 +7°C° 0.5 mm 3 mps 743 mmHg 83%
    23:00 +7°C° 0.5 mm 3 mps 743 mmHg 82%

    Day after tomorrow, 25 February, Sunday

    Time Temperature Precipitation Wind Pressure Humidity
    00:00 +7°C° 0.5 mm 3 mps 743 mmHg 81%
    01:00 +7°C° 0.5 mm 3 mps 743 mmHg 81%
    02:00 +5°C° 0.5 mm 3 mps 743 mmHg 81%
    03:00 +5°C° 0.5 mm 3 mps 743 mmHg 81%
    04:00 +5°C° 0.2 mm 3 mps 743 mmHg 81%
    05:00 +5°C° 0.2 mm 3 mps 743 mmHg 80%
    06:00 +5°C° 0.2 mm 3 mps 743 mmHg 80%
    07:00 +6°C° 0.2 mm 4 mps 743 mmHg 79%
    08:00 +6°C° 0.2 mm 4 mps 743 mmHg 78%
    09:00 +7°C° 0.2 mm 4 mps 743 mmHg 77%
    10:00 +7°C° 0.3 mm 5 mps 743 mmHg 78%
    11:00 +7°C° 0.3 mm 5 mps 743 mmHg 80%
    12:00 +7°C° 0.3 mm 6 mps 743 mmHg 82%
    13:00 +5°C° 0.5 mm 6 mps 743 mmHg 83%
    14:00 +5°C° 0.5 mm 7 mps 743 mmHg 85%
    15:00 +4°C° 0.5 mm 7 mps 742 mmHg 87%
    16:00 +4°C° 0.5 mm 7 mps 742 mmHg 88%
    17:00 +3°C° 0.5 mm 7 mps 743 mmHg 88%
    18:00 +1°C° 0.5 mm 8 mps 743 mmHg 89%
    19:00 +1°C° 0.6 mm 8 mps 743 mmHg 89%
    20:00 0°C° 0.6 mm 8 mps 743 mmHg 89%
    21:00 0°C° 0.6 mm 8 mps 743 mmHg 89%
    22:00 -1°C° 0.7 mm 8 mps 743 mmHg 88%
    23:00 -1°C° 0.7 mm 8 mps 743 mmHg 88%

    26 February, Monday

    Time Temperature Precipitation Wind Pressure Humidity
    00:00 -2°C° 0.7 mm 8 mps 743 mmHg 88%
    01:00 -2°C° 0.5 mm 8 mps 743 mmHg 87%
    02:00 -2°C° 0.5 mm 8 mps 743 mmHg 87%
    03:00 -2°C° 0.5 mm 8 mps 742 mmHg 87%
    04:00 -4°C° 0.2 mm 8 mps 742 mmHg 87%
    05:00 -4°C° 0.2 mm 8 mps 742 mmHg 87%
    06:00 -4°C° 0.2 mm 8 mps 743 mmHg 86%
    07:00 -4°C° 0.2 mm 8 mps 743 mmHg 84%
    08:00 -4°C° 0.2 mm 9 mps 743 mmHg 82%
    09:00 -4°C° 0.2 mm 9 mps 743 mmHg 79%
    10:00 -3°C° 0.1 mm 9 mps 743 mmHg 78%
    11:00 -3°C° 0.1 mm 9 mps 743 mmHg 76%
    12:00 -1°C° 0.1 mm 9 mps 743 mmHg 74%
    13:00 -1°C° 0.1 mm 8 mps 743 mmHg 75%
    14:00 -1°C° 0.1 mm 8 mps 743 mmHg 75%
    15:00 -1°C° 0.1 mm 7 mps 742 mmHg 76%
    16:00 -2°C° 0.1 mm 7 mps 743 mmHg 79%
    17:00 -3°C° 0.1 mm 6 mps 743 mmHg 83%
    18:00 -4°C° 0.1 mm 6 mps 743 mmHg 86%
    19:00 -4°C° 0.1 mm 6 mps 743 mmHg 86%
    20:00 -5°C° 0.1 mm 6 mps 743 mmHg 85%
    21:00 -5°C° 0.1 mm 6 mps 744 mmHg 85%
    22:00 -5°C° 0.1 mm 5 mps 744 mmHg 84%
    23:00 -5°C° 0.1 mm 5 mps 743 mmHg 83%

    27 February, Tuesday

    Time Temperature Precipitation Wind Pressure Humidity
    00:00 -6°C° 0.1 mm 5 mps 743 mmHg 83%
    01:00 -6°C° 0.2 mm 5 mps 743 mmHg 82%
    02:00 -6°C° 0.2 mm 5 mps 743 mmHg 82%
    03:00 -7°C° 0.2 mm 5 mps 743 mmHg 81%
    04:00 -7°C° 0.2 mm 5 mps 743 mmHg 80%
    05:00 -7°C° 0.2 mm 5 mps 742 mmHg 80%
    06:00 -7°C° 0.2 mm 5 mps 742 mmHg 79%
    07:00 -5°C° 0.2 mm 5 mps 742 mmHg 76%
    08:00 -4°C° 0.2 mm 5 mps 743 mmHg 73%
    09:00 -1°C° 0.2 mm 5 mps 743 mmHg 70%
    10:00 -1°C° 0.2 mm 5 mps 742 mmHg 70%
    11:00 -1°C° 0.2 mm 6 mps 742 mmHg 71%
    12:00 -1°C° 0.2 mm 6 mps 742 mmHg 71%
    13:00 -1°C° 0.3 mm 6 mps 742 mmHg 75%
    14:00 -1°C° 0.3 mm 6 mps 742 mmHg 78%
    15:00 -1°C° 0.3 mm 6 mps 741 mmHg 81%
    16:00 -1°C° 0.3 mm 5 mps 742 mmHg 85%
    17:00 -2°C° 0.3 mm 5 mps 742 mmHg 89%
    18:00 -2°C° 0.3 mm 5 mps 742 mmHg 92%
    19:00 -4°C° 0.3 mm 5 mps 742 mmHg 92%
    20:00 -4°C° 0.3 mm 5 mps 743 mmHg 92%
    21:00 -5°C° 0.3 mm 5 mps 743 mmHg 91%
    22:00 -5°C° 0.2 mm 5 mps 743 mmHg 90%
    23:00 -5°C° 0.2 mm 5 mps 743 mmHg 89%

    28 February, Wednesday

    Time Temperature Precipitation Wind Pressure Humidity
    00:00 -6°C° 0.2 mm 5 mps 743 mmHg 88%
    01:00 -6°C° 0.1 mm 5 mps 743 mmHg 87%
    02:00 -7°C° 0.1 mm 5 mps 743 mmHg 85%
    03:00 -8°C° 0.1 mm 6 mps 743 mmHg 83%
    04:00 -9°C° 0.1 mm 6 mps 743 mmHg 81%
    05:00 -9°C° 0.1 mm 6 mps 743 mmHg 78%
    06:00 -10°C° 0.1 mm 6 mps 743 mmHg 76%
    07:00 -6°C° 0 mm 6 mps 743 mmHg 72%
    08:00 -4°C° 0 mm 6 mps 743 mmHg 67%
    09:00 -2°C° 0 mm 6 mps 743 mmHg 63%
    10:00 -1°C° 0 mm 6 mps 743 mmHg 64%
    11:00 +1°C° 0 mm 6 mps 743 mmHg 65%
    12:00 +2°C° 0 mm 7 mps 743 mmHg 66%
    13:00 +2°C° 0.1 mm 7 mps 742 mmHg 69%
    14:00 +2°C° 0.1 mm 7 mps 742 mmHg 73%
    15:00 0°C° 0.1 mm 8 mps 742 mmHg 76%
    16:00 0°C° 0.3 mm 8 mps 741 mmHg 79%
    17:00 -1°C° 0.3 mm 9 mps 741 mmHg 82%
    18:00 -3°C° 0.3 mm 9 mps 741 mmHg 85%
    19:00 -3°C° 0.8 mm 10 mps 740 mmHg 87%
    20:00 -3°C° 0.8 mm 10 mps 740 mmHg 88%
    21:00 -3°C° 0.8 mm 11 mps 740 mmHg 90%
    22:00 -3°C° 1.6 mm 11 mps 739 mmHg 90%
    23:00 -3°C° 1.6 mm 11 mps 738 mmHg 91%
    Show more